FO-118
1 54684U 22167C 24186.85063926 .00029131 00000-0 96363-3 0 9991
2 54684 97.6064 332.1100 0010223 88.0702 272.1709 15.31250614 87005
SSS-2B
1 56184U 23054G 24186.80772160 .00040077 00000-0 92583-3 0 9998
2 56184 97.3676 84.9625 0009564 107.6861 252.5431 15.42366517 68850
CIRBE
1 56188U 23054L 24186.67953738 .00069035 00000-0 10075-2 0 9999
2 56188 97.3605 87.0619 0007969 106.0828 254.1305 15.55409363 69003
INSPIRE-Sat 7
1 56211U 23054AK 24186.25886452 .00091815 00000-0 12186-2 0 9994
2 56211 97.3612 87.9534 0010131 88.4288 271.8128 15.57869923 69015
RoseyCubesat 1
1 56212U 23054AL 24186.84413940 .00135115 00000-0 14299-2 0 9997
2 56212 97.3625 89.4969 0010254 89.4078 270.8355 15.63651225 69161
SO-120
1 56992U 23084BU 24186.79581016 .00026664 00000-0 93812-3 0 9996
2 56992 97.5332 306.3585 0010767 321.6611 38.3862 15.29261350 58875
MRC-100
1 56993U 23084BV 24186.87216307 .00036323 00000-0 11883-2 0 9994
2 56993 97.5333 306.8952 0010166 318.4258 41.6209 15.31560439 58925
UmKA 1 (RS40S)
1 57172U 23091G 24186.85317768 .00005774 00000-0 37994-3 0 9991
2 57172 97.6107 238.7213 0018018 65.1682 295.1418 15.07811183 56158
CubeBel-2 (EU11S)
1 57175U 23091K 24186.86136653 .00008167 00000-0 52502-3 0 9998
2 57175 97.6111 238.6987 0016635 76.8824 283.4260 15.08563198 56159
VERONIKA
1 58261U 23174F 24186.75486952 .00019158 00000-0 84289-3 0 9994
2 58261 97.4607 261.3830 0012839 176.2249 183.9086 15.21836462 36387
KAFASAT
1 58317U 23174BP 24186.79725351 .00022724 00000-0 90161-3 0 9998
2 58317 97.4552 262.0727 0012194 155.1976 204.9850 15.25301702 36446
ENSO
1 58470U 23185J 24186.86824322 .00017822 00000-0 73925-3 0 9998
2 58470 97.4264 253.4087 0012260 209.7298 150.3244 15.23857725 32835
EIRSAT-1
1 58472U 23185L 24186.83450517 .00016782 00000-0 68392-3 0 9994
2 58472 97.4259 253.4325 0011852 209.8162 150.2401 15.24472013 32831
SO-121
1 58567U 23174CY 24186.18523902 .00050753 00000-0 16511-2 0 9995
2 58567 97.4540 261.9847 0013425 167.8072 192.3497 15.31622235 36380
SONATE-2
1 59112U 24043Q 24186.62864444 .00011110 00000-0 53254-3 0 9996
2 59112 97.4803 310.2849 0014155 229.8388 130.1607 15.18997103 18454
KASHIWA
1 59508U 98067WH 24186.80952754 .00201522 00000-0 13612-2 0 9995
2 59508 51.6270 221.2964 0013268 16.8040 343.3396 15.73809040 13265
OBJECT A
1 60203U 24126A 24186.55623994 -.00000079 00000-0 00000+0 0 9996
2 60203 97.3158 40.6714 0053031 256.1787 191.8334 15.26459174 54
OBJECT B
1 60204U 24126B 24186.55798365 -.00000069 00000-0 00000+0 0 9991
2 60204 97.3219 39.4368 0020659 251.3829 199.4310 15.20834757 54
OBJECT C
1 60205U 24126C 24186.55765001 -.00000069 00000-0 00000+0 0 9993
2 60205 97.3243 39.4465 0021248 251.4901 197.0698 15.20461757 56
OBJECT D
1 60206U 24126D 24186.55738278 -.00000069 00000-0 00000+0 0 9990
2 60206 97.3232 39.4460 0025477 251.2826 194.9222 15.19785027 58
OBJECT E
1 60207U 24126E 24186.55833862 -.00000069 00000-0 00000+0 0 9996
2 60207 97.3235 39.4433 0026063 254.9561 196.2828 15.19645968 56
OBJECT F
1 60208U 24126F 24186.55740784 -.00000069 00000-0 00000+0 0 9997
2 60208 97.3249 39.4483 0026249 255.6498 190.2366 15.19429788 62
MESAT1
1 60209U 24126G 24186.55793875 -.00000068 00000-0 00000+0 0 9996
2 60209 97.3192 39.4360 0024944 264.5227 183.7607 15.19026686 57
OBJECT H
1 60210U 24126H 24186.62212088 -.00000068 00000-0 00000+0 0 9998
2 60210 97.3238 39.5134 0026178 260.2378 178.9600 15.19130334 67
